This is the latest recevied weather packets stored in our database for station/object SA7AHC. If no packets are shown the sender has not sent any weather packets the latest 10 day(s).
| Time | Temp. | Humidity | Pressure | Rain* | Wind** | Luminosity | Snow |
|---|---|---|---|---|---|---|---|
| 1778160579 | 15.56° C | 37% | 1017.2 hPa | 0 mm | - | 722 W/m² | - |
| 1778159975 | 13.89° C | 33% | 1017 hPa | 0 mm | - | 128 W/m² | - |
| 1778159375 | 15° C | 36% | 1017 hPa | 0 mm | - | 153 W/m² | - |
| 1778158775 | 15° C | 35% | 1017.1 hPa | 0 mm | - | 190 W/m² | - |
| 1778158175 | 14.44° C | 32% | 1016.9 hPa | 0 mm | - | 192 W/m² | - |
| 1778157579 | 15° C | 35% | 1017 hPa | 0 mm | - | 846 W/m² | - |
| 1778156976 | 15.56° C | 35% | 1017 hPa | 0 mm | - | 826 W/m² | - |
| 1778156377 | 14.44° C | 35% | 1017 hPa | 0 mm | - | 814 W/m² | - |
| 1778155777 | 13.33° C | 41% | 1016.9 hPa | 0 mm | - | 276 W/m² | - |
| 1778155172 | 13.33° C | 37% | 1016.9 hPa | 0 mm | - | 146 W/m² | - |
| 1778154575 | 13.89° C | 38% | 1017 hPa | 0 mm | - | 142 W/m² | - |
| 1778153968 | 14.44° C | 37% | 1017 hPa | 0 mm | - | 603 W/m² | - |
| 1778153372 | 12.78° C | 38% | 1016.9 hPa | 0 mm | - | 290 W/m² | - |
| 1778152761 | 13.33° C | 35% | 1016.9 hPa | 0 mm | - | 262 W/m² | - |
| 1778152160 | 13.89° C | 39% | 1016.9 hPa | 0 mm | - | 251 W/m² | - |
| 1778151547 | 14.44° C | 40% | 1016.9 hPa | 0 mm | - | 935 W/m² | - |
| 1778150948 | 15.56° C | 36% | 1017.1 hPa | 0 mm | - | 914 W/m² | - |
| 1778150348 | 13.89° C | 40% | 1017 hPa | 0 mm | - | 854 W/m² | - |
| 1778149748 | 13.33° C | 39% | 1016.9 hPa | 0 mm | - | 849 W/m² | - |
| 1778149144 | 12.22° C | 40% | 1016.8 hPa | 0 mm | - | 251 W/m² | - |
| 1778148546 | 12.78° C | 39% | 1016.9 hPa | 0 mm | - | 779 W/m² | - |
| 1778147946 | 12.78° C | 41% | 1016.8 hPa | 0 mm | - | 758 W/m² | - |
| 1778147343 | 12.22° C | 43% | 1016.8 hPa | 0 mm | - | 749 W/m² | - |
| 1778146749 | 12.22° C | 42% | 1016.8 hPa | 0 mm | - | 740 W/m² | - |
| 1778146144 | 12.22° C | 45% | 1016.8 hPa | 0 mm | - | 729 W/m² | - |
* Rain latest hour (hover to see other rain measurements)
** Current wind speed in m/s (hover to see current wind gust speed)